FW7008 Weather Reports


time (UTC)temp
F
wind
direction
speed
knots
gust
knots
rain 1hr
in
rain 24hr
in
rain mn
in
humidity
%
barometer
mb
20260509193057 70 267 7.8 7.8 0.00 0.00 0.00 79 1014.2
20260509192553 69 224 3.5 5.2 0.00 0.00 0.00 80 1014.2
20260509192049 69 246 5.2 7.0 0.00 0.00 0.00 82 1014.2
20260509191549 70 255 6.1 7.0 0.00 0.00 0.00 81 1014.2
20260509191045 70 255 6.1 7.0 0.00 0.00 0.00 81 1014.2
20260509190542 70 263 5.2 6.1 0.00 0.00 0.00 79 1014.6
20260509190040 70 248 5.2 6.1 0.00 0.00 0.00 78 1014.6
20260509185537 70 248 5.2 6.1 0.00 0.00 0.00 79 1014.6
20260509185033 69 290 6.1 7.0 0.00 0.00 0.00 81 1014.6
20260509184532 70 267 0.9 2.6 0.00 0.00 0.00 79 1014.6
20260509184027 70 206 0.0 0.0 0.00 0.00 0.00 79 1014.6
20260509183523 69 261 1.7 2.6 0.00 0.00 0.00 81 1014.6
20260509183019 69 206 0.0 0.0 0.00 0.00 0.00 81 1014.6
20260509182515 68 275 5.2 6.1 0.00 0.00 0.00 82 1014.6
20260509182013 68 264 0.0 0.0 0.00 0.00 0.00 82 1014.6
20260509181511 68 308 0.0 0.0 0.00 0.00 0.00 83 1014.6
20260509181008 67 284 0.9 1.7 0.00 0.00 0.00 84 1014.9
20260509180503 67 178 0.9 4.3 0.00 0.00 0.00 83 1014.6
20260509180001 67 246 0.0 0.0 0.00 0.00 0.00 84 1014.9
20260509175456 68 264 0.0 0.0 0.00 0.00 0.00 83 1014.6
20260509174953 67 286 0.0 0.0 0.00 0.00 0.00 83 1014.9
20260509174449 68 286 0.0 0.0 0.00 0.00 0.00 82 1014.9
20260509173945 68 103 0.0 0.0 0.00 0.00 0.00 81 1014.9
20260509173445 68 16 0.0 0.0 0.00 0.00 0.00 81 1014.9
20260509172942 68 109 0.0 0.0 0.00 0.00 0.00 83 1014.9
20260509172439 67 129 0.0 0.0 0.00 0.00 0.00 83 1014.9
20260509171934 68 58 0.0 0.0 0.00 0.00 0.00 83 1014.6
20260509171430 68 53 0.0 0.0 0.00 0.00 0.00 82 1014.6
20260509170927 66 65 0.0 0.0 0.00 0.00 0.00 84 1014.6
20260509170423 66 110 0.0 0.0 0.00 0.00 0.00 86 1014.6
20260509165919 65 132 0.0 0.0 0.00 0.00 0.00 86 1014.6
20260509165413 66 110 0.0 0.0 0.00 0.00 0.00 85 1014.6
20260509164909 66 89 0.0 0.0 0.00 0.00 0.00 85 1014.2
20260509164405 66 80 0.0 0.0 0.00 0.00 0.00 85 1014.6
20260509163901 66 24 0.0 0.0 0.00 0.00 0.00 86 1014.9
20260509163358 65 68 0.0 0.0 0.00 0.00 0.00 87 1014.6
20260509162857 65 77 0.9 0.9 0.00 0.00 0.00 87 1014.6
20260509162355 65 74 0.0 0.0 0.00 0.00 0.00 87 1014.6
20260509161852 65 114 0.0 0.0 0.00 0.00 0.00 87 1014.9
20260509161348 64 50 0.0 0.0 0.00 0.00 0.00 88 1014.6
20260509160844 64 56 0.0 0.0 0.00 0.00 0.00 88 1014.9
20260509160340 64 23 0.0 0.0 0.00 0.00 0.00 90 1014.6
20260509155835 64 8 0.0 0.0 0.00 0.00 0.00 90 1014.6
20260509155332 64 45 0.0 0.0 0.00 0.00 0.00 90 1014.9
20260509154828 63 59 0.0 0.0 0.00 0.00 0.00 90 1014.9
20260509154325 63 72 0.0 0.0 0.00 0.00 0.00 90 1014.6
20260509153822 63 66 0.0 1.7 0.00 0.00 0.00 91 1014.6
20260509153318 63 10 0.0 0.0 0.00 0.00 0.00 91 1014.6
20260509152815 63 15 0.0 0.0 0.00 0.00 0.00 91 1014.6
20260509152311 63 39 0.0 0.0 0.00 0.00 0.00 91 1014.9
20260509151809 63 70 0.0 0.0 0.00 0.00 0.00 91 1014.9
20260509151305 63 48 0.0 0.0 0.00 0.00 0.00 91 1014.6
20260509150804 62 101 0.0 0.0 0.00 0.00 0.00 92 1014.9
20260509150301 62 72 0.0 0.0 0.00 0.00 0.00 92 1014.9
20260509145758 62 82 0.0 0.0 0.00 0.00 0.00 93 1014.9
20260509145257 62 87 0.0 0.0 0.00 0.00 0.00 93 1014.9
20260509144754 62 72 0.0 0.0 0.00 0.00 0.00 93 1014.9
20260509144251 62 70 0.0 0.0 0.00 0.00 0.00 93 1014.6
20260509143748 61 58 0.0 0.0 0.00 0.00 0.00 94 1014.9
20260509143246 61 72 0.0 0.0 0.00 0.00 0.00 94 1014.6
20260509142741 61 58 0.0 0.0 0.00 0.00 0.00 94 1014.6
20260509142238 61 58 0.0 0.0 0.00 0.00 0.00 95 1014.6
20260509141733 61 59 0.0 0.0 0.00 0.00 0.00 95 1014.6
20260509141231 61 51 0.0 0.0 0.00 0.00 0.00 95 1014.6
20260509140728 61 53 0.0 0.0 0.00 0.00 0.00 96 1014.6
20260509140225 61 57 0.0 0.0 0.00 0.00 0.00 96 1014.6
20260509135722 60 59 0.0 0.0 0.00 0.00 0.00 96 1014.6
20260509135220 60 58 0.0 0.0 0.00 0.00 0.00 96 1014.6
20260509134717 60 58 0.0 0.0 0.00 0.00 0.00 96 1014.2
20260509134214 60 58 0.0 0.0 0.00 0.00 0.00 97 1014.2
20260509133711 60 53 0.0 0.0 0.00 0.00 0.00 97 1014.6
20260509133208 60 56 0.0 0.0 0.00 0.00 0.00 97 1014.6
20260509132707 60 55 0.0 0.0 0.00 0.00 0.00 97 1014.2
20260509132205 60 54 0.0 0.0 0.00 0.00 0.00 97 1014.2
20260509131700 60 54 0.0 0.0 0.00 0.00 0.00 97 1014.2
20260509131152 60 61 0.0 0.0 0.00 0.00 0.00 97 1014.6
20260509130647 60 58 0.0 0.0 0.00 0.00 0.00 97 1014.2
20260509130144 60 59 0.0 0.0 0.00 0.00 0.00 97 1014.2
20260509125641 60 53 0.0 0.0 0.00 0.00 0.00 97 1013.9
20260509125137 60 51 0.0 0.0 0.00 0.00 0.00 97 1013.9
20260509124634 60 63 0.0 0.0 0.00 0.00 0.00 97 1013.9
20260509124131 60 63 0.0 0.0 0.00 0.00 0.00 97 1013.9
20260509123629 60 78 0.0 0.0 0.00 0.00 0.00 97 1013.9
20260509123125 60 73 0.0 0.0 0.00 0.00 0.00 98 1013.9
20260509122621 60 123 0.0 0.0 0.00 0.00 0.00 98 1014.2
20260509122119 59 66 0.0 0.0 0.00 0.00 0.00 98 1014.2
20260509121615 60 60 0.0 0.0 0.00 0.00 0.00 98 1014.2
20260509121113 59 69 0.0 0.0 0.00 0.00 0.00 98 1013.9
20260509120611 59 72 0.0 0.0 0.00 0.00 0.00 98 1013.9
20260509120109 60 135 0.0 0.0 0.00 0.00 0.00 98 1014.2
20260509115606 59 84 0.0 0.0 0.00 0.00 0.00 98 1014.2
20260509115103 59 125 0.0 0.0 0.00 0.00 0.00 98 1013.9
20260509114601 59 120 0.0 0.0 0.00 0.00 0.00 98 1014.2
20260509114100 59 62 0.0 0.0 0.00 0.00 0.00 98 1014.2
20260509113558 60 77 0.0 0.0 0.00 0.00 0.00 98 1014.2
20260509113055 59 77 0.0 0.0 0.00 0.00 0.00 98 1014.2
20260509112551 60 73 0.0 0.0 0.00 0.00 0.00 98 1013.9
20260509112048 60 79 0.0 0.0 0.00 0.00 0.00 98 1014.2
20260509111546 60 88 0.0 0.0 0.00 0.00 0.00 98 1014.2
20260509111043 60 78 0.0 0.0 0.00 0.00 0.00 98 1014.2
20260509110540 60 89 0.0 0.0 0.00 0.00 0.00 98 1014.2
20260509110037 60 85 0.0 0.0 0.00 0.00 0.00 98 1014.2
20260509105535 60 57 0.0 0.0 0.00 0.00 0.00 98 1014.2
20260509105032 60 65 0.0 0.0 0.00 0.00 0.00 97 1014.2
20260509104529 60 86 0.0 0.0 0.00 0.00 0.00 97 1014.2
20260509104026 60 59 0.0 0.0 0.00 0.00 0.00 97 1014.2
20260509103524 60 72 0.0 0.0 0.00 0.00 0.00 97 1014.2
20260509103022 60 81 0.0 0.0 0.00 0.00 0.00 97 1014.2
20260509102519 60 60 0.0 0.0 0.00 0.00 0.00 97 1014.2
20260509102015 60 82 0.0 0.0 0.00 0.00 0.00 97 1013.9
20260509101512 60 92 0.0 0.0 0.00 0.00 0.00 97 1014.2
20260509101009 60 61 0.0 0.0 0.00 0.00 0.00 97 1014.2
20260509100507 60 60 0.0 0.0 0.00 0.00 0.00 97 1014.2
20260509100004 60 73 0.0 0.0 0.00 0.00 0.00 96 1014.2
20260509095459 60 63 0.0 0.0 0.00 0.00 0.00 96 1014.2
20260509094956 60 90 0.0 0.0 0.00 0.00 0.00 96 1014.2
20260509094453 61 81 2.6 4.3 0.00 0.00 0.00 96 1014.6
20260509093950 61 51 0.0 0.0 0.00 0.00 0.00 95 1014.6
20260509093448 61 47 0.0 0.0 0.00 0.00 0.00 95 1014.6
20260509092946 61 5 0.0 0.0 0.00 0.00 0.00 95 1014.6
20260509092444 61 4 0.0 0.0 0.00 0.00 0.00 95 1014.6
20260509091942 61 356 0.0 0.0 0.00 0.00 0.00 95 1014.6
20260509091438 61 315 0.0 0.0 0.00 0.00 0.00 95 1014.2
20260509090936 61 291 0.0 0.0 0.00 0.00 0.00 95 1014.2
20260509090433 61 348 0.0 0.0 0.00 0.00 0.00 95 1014.6
20260509085930 61 298 0.0 0.0 0.00 0.00 0.00 95 1014.9
20260509085427 61 305 0.0 0.0 0.00 0.00 0.00 95 1014.2
20260509084923 61 318 0.0 0.0 0.00 0.00 0.00 95 1014.9
20260509084420 61 316 0.0 0.0 0.00 0.00 0.00 95 1014.6
20260509083918 61 294 0.0 0.0 0.00 0.00 0.00 94 1014.9
20260509083415 61 281 0.0 0.0 0.00 0.00 0.00 94 1014.6
20260509082912 61 287 0.0 0.0 0.00 0.00 0.00 94 1014.6
20260509082409 61 287 0.0 0.0 0.00 0.00 0.00 94 1014.6
20260509081905 61 328 0.0 0.0 0.00 0.00 0.00 94 1014.6
20260509081403 61 343 0.0 0.0 0.00 0.00 0.00 94 1014.9
20260509080900 61 334 0.0 0.0 0.00 0.00 0.00 94 1014.9
20260509080358 61 3 0.0 0.0 0.00 0.00 0.00 94 1014.9
20260509075857 61 349 0.0 0.0 0.00 0.00 0.00 94 1014.9
20260509075353 61 0 0.0 0.0 0.00 0.00 0.00 95 1014.9
20260509074850 61 356 0.0 0.0 0.00 0.00 0.00 95 1015.2
20260509074348 61 350 0.0 0.0 0.00 0.00 0.00 95 1015.2
20260509073844 61 310 0.0 0.0 0.00 0.00 0.00 95 1014.9
20260509073341 61 344 0.0 0.0 0.00 0.00 0.00 95 1015.2
20260509072837 61 341 0.0 0.0 0.00 0.00 0.00 95 1014.9
20260509072333 61 338 0.0 0.0 0.00 0.00 0.00 95 1015.2
20260509071830 61 335 0.0 0.0 0.00 0.00 0.00 95 1014.9
20260509071327 61 331 0.0 0.0 0.00 0.00 0.00 95 1015.2
20260509070824 60 310 0.0 0.0 0.00 0.00 0.00 95 1015.2
20260509070321 60 296 0.0 0.0 0.00 0.00 0.00 95 1015.2
20260509065817 60 308 0.0 0.0 0.00 0.00 0.00 95 1015.2
20260509065314 60 282 0.0 0.0 0.00 0.00 0.00 95 1015.2
20260509064810 60 295 0.0 0.0 0.00 0.00 0.00 95 1015.2
20260509064307 60 283 0.0 0.0 0.00 0.00 0.00 95 1015.2
20260509063805 60 285 0.0 0.0 0.00 0.00 0.00 96 1015.2
20260509063301 60 243 0.0 0.0 0.00 0.00 0.00 96 1015.2
20260509062758 60 258 0.0 0.0 0.00 0.00 0.00 96 1015.6
20260509062255 60 255 0.0 0.0 0.00 0.00 0.00 96 1015.6
20260509061752 60 214 0.0 0.0 0.00 0.00 0.00 97 1015.2
20260509061250 60 231 0.0 0.0 0.00 0.00 0.00 97 1015.2
20260509060747 60 259 0.0 0.0 0.00 0.00 0.00 97 1015.6
20260509060243 60 256 0.0 0.0 0.00 0.00 0.00 97 1015.6
20260509055739 60 271 0.0 0.0 0.00 0.00 0.00 97 1015.6
20260509055235 60 228 0.0 0.0 0.00 0.00 0.00 97 1015.6
20260509054732 60 240 0.0 0.0 0.00 0.00 0.00 97 1015.6
20260509054229 60 246 0.0 0.0 0.00 0.00 0.00 97 1015.2
20260509053727 59 243 0.0 0.0 0.00 0.00 0.00 97 1015.6
20260509053224 59 246 0.0 0.0 0.00 0.00 0.00 97 1015.6
20260509052722 59 264 0.0 0.0 0.00 0.00 0.00 97 1015.6
20260509052219 59 243 0.0 0.0 0.00 0.00 0.00 97 1015.2
20260509051717 59 235 0.0 0.0 0.00 0.00 0.00 97 1015.2
20260509051215 59 261 0.0 0.0 0.00 0.00 0.00 97 1015.6
20260509050711 59 235 0.0 0.0 0.00 0.00 0.00 97 1015.2
20260509050208 59 244 0.0 0.0 0.00 0.00 0.00 97 1015.6
20260509045705 59 243 0.0 0.0 0.00 0.00 0.00 97 1015.2
20260509045202 59 271 0.0 0.0 0.00 0.00 0.00 97 1015.2
20260509044659 59 244 0.0 0.0 0.00 0.00 0.00 97 1015.2
20260509044156 60 235 0.0 0.0 0.00 0.00 0.00 97 1015.2
20260509043653 60 219 0.0 0.0 0.00 0.00 0.00 97 1015.6
20260509043148 60 250 0.0 0.0 0.00 0.00 0.00 96 1015.2
20260509042645 60 232 0.0 0.0 0.00 0.00 0.00 96 1015.2
20260509042141 60 241 0.0 0.0 0.00 0.00 0.00 96 1015.2
20260509041638 60 260 0.0 0.0 0.00 0.00 0.00 96 1015.2
20260509041135 60 236 6.1 7.0 0.00 0.00 0.00 96 1015.2
20260509040634 60 238 2.6 4.3 0.00 0.00 0.00 96 1015.2
20260509040131 60 235 0.0 0.9 0.00 0.00 0.00 96 1014.9
20260509035627 60 241 6.1 7.8 0.00 0.00 0.00 96 1014.9
20260509035124 60 269 0.0 1.7 0.00 0.00 0.00 96 1014.9
20260509034622 60 275 0.0 0.0 0.00 0.00 0.00 96 1014.9
20260509034119 60 207 1.7 2.6 0.00 0.00 0.00 96 1014.9
20260509033615 60 259 0.0 0.0 0.00 0.00 0.00 96 1014.9
20260509033112 60 260 4.3 8.7 0.00 0.00 0.00 96 1014.9
20260509032610 60 186 0.0 0.0 0.00 0.00 0.00 96 1014.9
20260509032107 61 243 1.7 5.2 0.00 0.00 0.00 96 1014.6
20260509031604 61 225 0.0 0.0 0.00 0.00 0.00 96 1014.6
20260509031102 61 245 0.0 0.0 0.00 0.00 0.00 96 1014.9
20260509030600 61 230 0.0 0.0 0.00 0.00 0.00 96 1014.6
20260509030056 61 253 4.3 6.1 0.00 0.00 0.00 96 1014.6
20260509025552 61 242 0.9 1.7 0.00 0.00 0.00 95 1014.6
20260509025048 61 235 0.0 0.0 0.00 0.00 0.00 95 1014.2
20260509024544 61 243 0.0 0.0 0.00 0.00 0.00 95 1014.6
20260509024040 61 238 5.2 7.8 0.00 0.00 0.00 95 1014.6
20260509023538 61 262 0.0 0.0 0.00 0.00 0.00 95 1014.6
20260509023035 61 278 2.6 4.3 0.00 0.00 0.00 95 1014.2
20260509022531 61 277 0.0 0.9 0.00 0.00 0.00 95 1014.2
20260509022029 61 225 3.5 6.1 0.00 0.00 0.00 95 1014.2
20260509021526 61 231 4.3 6.1 0.00 0.00 0.00 95 1014.2
20260509021023 61 244 3.5 7.0 0.00 0.00 0.00 95 1014.2
20260509020521 62 269 5.2 6.1 0.00 0.00 0.00 95 1014.2
20260509020018 62 245 7.8 8.7 0.00 0.00 0.00 94 1014.2
20260509015517 62 217 0.0 0.0 0.00 0.00 0.00 94 1014.2
20260509015014 62 228 3.5 5.2 0.00 0.00 0.00 94 1014.2
20260509014510 63 245 5.2 7.0 0.00 0.00 0.00 93 1013.9
20260509014006 63 269 0.0 0.0 0.00 0.00 0.00 92 1014.2
20260509013504 63 232 4.3 7.0 0.00 0.00 0.00 92 1014.2
20260509012959 63 239 7.8 9.6 0.00 0.00 0.00 92 1013.9
20260509012455 63 244 7.8 9.6 0.00 0.00 0.00 92 1014.2
20260509011953 63 243 4.3 5.2 0.00 0.00 0.00 91 1014.2
20260509011450 64 268 9.6 12.2 0.00 0.00 0.00 91 1014.2
20260509010948 64 202 5.2 8.7 0.00 0.00 0.00 90 1014.2
20260509010446 64 155 0.0 0.9 0.00 0.00 0.00 91 1014.2
20260509005942 64 237 8.7 9.6 0.00 0.00 0.00 91 1013.9
20260509005440 64 231 6.1 9.6 0.00 0.00 0.00 91 1013.9
20260509004940 64 279 0.9 2.6 0.00 0.00 0.00 90 1014.2
20260509004437 65 204 4.3 7.0 0.00 0.00 0.00 89 1014.2
20260509003935 66 233 7.0 9.6 0.00 0.00 0.00 87 1014.2
20260509003433 66 221 4.3 6.1 0.00 0.00 0.00 87 1014.6
20260509002929 66 302 5.2 7.0 0.00 0.00 0.00 87 1014.2
20260509002427 67 153 7.0 7.8 0.00 0.00 0.00 85 1014.2
20260509001924 66 230 5.2 7.0 0.00 0.00 0.00 87 1014.2
20260509001420 65 244 6.1 7.8 0.00 0.00 0.00 87 1014.2
20260509000917 66 237 9.6 11.3 0.00 0.00 0.00 85 1014.2
20260509000417 67 222 7.8 9.6 0.00 0.00 0.00 84 1014.2
20260508235911 68 174 6.1 8.7 0.00 0.00 0.00 82 1014.2
20260508235409 67 252 7.0 8.7 0.00 0.00 0.00 83 1014.2
20260508234905 67 239 9.6 12.2 0.00 0.00 0.00 84 1014.2
20260508234402 67 230 4.3 7.0 0.00 0.00 0.00 83 1014.6
20260508233900 68 248 7.8 8.7 0.00 0.00 0.00 82 1014.2
20260508233400 67 250 7.0 7.8 0.00 0.00 0.00 82 1014.2
20260508232856 68 248 7.8 9.6 0.00 0.00 0.00 82 1014.2
20260508232352 68 256 7.0 8.7 0.00 0.00 0.00 82 1014.2
20260508231851 67 212 7.8 11.3 0.00 0.00 0.00 82 1014.6
20260508231347 67 211 10.4 13.0 0.00 0.00 0.00 82 1014.6
20260508230843 67 224 1.7 6.1 0.00 0.00 0.00 83 1014.9
20260508230340 68 255 8.7 11.3 0.00 0.00 0.00 81 1014.6
20260508225838 68 203 3.5 7.8 0.00 0.00 0.00 82 1014.6
20260508225334 69 227 8.7 9.6 0.00 0.00 0.00 81 1014.9
20260508224832 69 215 7.8 8.7 0.00 0.00 0.00 80 1014.9
20260508224329 68 255 6.1 7.8 0.00 0.00 0.00 81 1014.6
20260508223827 69 210 7.0 8.7 0.00 0.00 0.00 80 1014.9
20260508223324 68 247 0.0 0.9 0.00 0.00 0.00 82 1014.9
20260508222821 69 241 7.8 8.7 0.00 0.00 0.00 81 1015.2
20260508222318 70 281 6.1 7.0 0.00 0.00 0.00 78 1015.2
20260508221815 69 278 7.0 8.7 0.00 0.00 0.00 80 1015.2
20260508221310 69 237 7.8 9.6 0.00 0.00 0.00 78 1015.2
20260508220807 69 241 0.9 2.6 0.00 0.00 0.00 80 1015.2
20260508220304 69 235 5.2 7.0 0.00 0.00 0.00 80 1015.6
20260508215800 69 230 6.1 7.0 0.00 0.00 0.00 79 1015.2
20260508215257 68 209 4.3 6.1 0.00 0.00 0.00 81 1015.2
20260508214754 69 234 8.7 9.6 0.00 0.00 0.00 81 1015.6
20260508214251 70 199 4.3 5.2 0.00 0.00 0.00 80 1015.6
20260508213747 70 250 9.6 11.3 0.00 0.00 0.00 79 1015.6
20260508213244 69 254 5.2 6.1 0.00 0.00 0.00 80 1015.6
20260508212741 69 248 8.7 9.6 0.00 0.00 0.00 79 1015.6
20260508212237 70 235 1.7 2.6 0.00 0.00 0.00 78 1015.6
20260508211733 69 250 4.3 6.1 0.00 0.00 0.00 79 1015.9
20260508211229 71 246 7.0 7.8 0.00 0.00 0.00 78 1015.6
20260508210727 70 187 4.3 5.2 0.00 0.00 0.00 78 1015.9
20260508210223 69 247 7.0 7.8 0.00 0.00 0.00 80 1015.6
20260508205720 70 285 7.8 8.7 0.00 0.00 0.00 77 1015.9
20260508205217 69 250 7.0 8.7 0.00 0.00 0.00 77 1015.9
20260508204713 69 279 7.0 8.7 0.00 0.00 0.00 78 1015.9
20260508204209 69 287 6.1 7.8 0.00 0.00 0.00 80 1015.9
20260508203705 70 262 8.7 9.6 0.00 0.00 0.00 78 1016.2
20260508203202 70 219 6.1 8.7 0.00 0.00 0.00 77 1015.9
20260508202658 69 263 6.1 7.0 0.00 0.00 0.00 79 1015.9
20260508202155 69 258 4.3 5.2 0.00 0.00 0.00 80 1015.9
20260508201652 69 259 5.2 8.7 0.00 0.00 0.00 80 1016.2
20260508201149 71 262 0.0 0.0 0.00 0.00 0.00 78 1015.9
20260508200646 69 226 6.1 7.0 0.00 0.00 0.00 80 1015.9
20260508200142 70 262 6.1 7.8 0.00 0.00 0.00 79 1015.9
20260508195638 69 325 0.9 1.7 0.00 0.00 0.00 80 1016.2
20260508195134 71 225 4.3 6.1 0.00 0.00 0.00 77 1016.6
20260508194631 71 260 8.7 9.6 0.00 0.00 0.00 76 1016.2
20260508194128 70 241 0.9 0.9 0.00 0.00 0.00 80 1016.2
20260508193625 71 222 0.0 0.0 0.00 0.00 0.00 77 1016.2